Time,TemperatureF,DewpointF,PressureIn,WindDirection,WindDirectionDegrees,WindSpeedMPH,WindSpeedGustMPH,Humidity,HourlyPrecipIn,Conditions,Clouds,dailyrainin,SoftwareType,DateUTC
2013-04-09 00:02:00,66.0,57.0,29.74,SSE,157,6.0,9.0,74,0.00,,,0.00,,2013-04-09 05:02:00,
2013-04-09 00:12:00,66.0,57.0,29.73,SE,140,7.0,9.0,74,0.00,,,0.00,,2013-04-09 05:12:00,
2013-04-09 00:22:00,66.0,57.0,29.73,SE,140,7.0,9.0,74,0.00,,,0.00,,2013-04-09 05:22:00,
2013-04-09 00:32:00,65.0,57.0,29.73,SSE,149,7.0,13.0,75,0.00,,,0.00,,2013-04-09 05:32:00,
2013-04-09 00:42:00,65.0,57.0,29.72,SSE,147,6.0,11.0,76,0.00,,,0.00,,2013-04-09 05:42:00,
2013-04-09 00:52:00,65.0,57.0,29.72,SSE,147,6.0,11.0,76,0.00,,,0.00,,2013-04-09 05:52:00,
2013-04-09 01:02:00,65.0,57.0,29.72,SE,139,9.0,12.0,75,0.00,,,0.00,,2013-04-09 06:02:00,
2013-04-09 01:12:00,65.0,57.0,29.74,SSE,156,7.0,11.0,75,0.00,,,0.00,,2013-04-09 06:12:00,
2013-04-09 01:22:00,65.0,57.0,29.74,SSE,156,7.0,11.0,75,0.00,,,0.00,,2013-04-09 06:22:00,
2013-04-09 01:32:00,65.0,57.0,29.71,SSE,151,7.0,11.0,75,0.00,,,0.00,,2013-04-09 06:32:00,
2013-04-09 01:42:00,65.0,57.0,29.71,SSE,151,7.0,11.0,75,0.00,,,0.00,,2013-04-09 06:42:00,
2013-04-09 01:52:00,65.0,57.0,29.73,SSE,165,8.0,11.0,75,0.00,,,0.00,,2013-04-09 06:52:00,
2013-04-09 02:02:00,65.0,57.0,29.71,SSE,152,8.0,11.0,75,0.00,,,0.00,,2013-04-09 07:02:00,
2013-04-09 02:12:00,65.0,57.0,29.72,SSE,156,6.0,10.0,75,0.00,,,0.00,,2013-04-09 07:12:00,
2013-04-09 02:22:00,65.0,57.0,29.72,SSE,156,6.0,10.0,75,0.00,,,0.00,,2013-04-09 07:22:00,
2013-04-09 02:32:00,65.0,57.0,29.70,SSE,151,8.0,13.0,75,0.00,,,0.00,,2013-04-09 07:32:00,
2013-04-09 02:42:00,65.0,57.0,29.70,SSE,151,8.0,13.0,75,0.00,,,0.00,,2013-04-09 07:42:00,
2013-04-09 02:52:00,65.0,56.0,29.70,SSE,156,12.0,13.0,74,0.00,,,0.00,,2013-04-09 07:52:00,
2013-04-09 03:02:00,65.0,56.0,29.70,SSE,148,6.0,11.0,74,0.00,,,0.00,,2013-04-09 08:02:00,
2013-04-09 03:12:00,65.0,56.0,29.70,SSE,148,6.0,11.0,74,0.00,,,0.00,,2013-04-09 08:12:00,
2013-04-09 03:22:00,65.0,57.0,29.68,SE,146,11.0,15.0,75,0.00,,,0.00,,2013-04-09 08:22:00,
2013-04-09 03:32:00,65.0,56.0,29.69,SE,140,8.0,11.0,74,0.00,,,0.00,,2013-04-09 08:32:00,
2013-04-09 03:42:00,64.0,56.0,29.68,SE,137,9.0,14.0,74,0.00,,,0.00,,2013-04-09 08:42:00,
2013-04-09 03:52:00,64.0,56.0,29.68,SE,137,9.0,14.0,74,0.00,,,0.00,,2013-04-09 08:52:00,
2013-04-09 04:02:00,64.0,56.0,29.70,SE,138,8.0,12.0,75,0.00,,,0.00,,2013-04-09 09:02:00,
2013-04-09 04:12:00,64.0,56.0,29.69,SE,124,10.0,14.0,75,0.00,,,0.00,,2013-04-09 09:12:00,
2013-04-09 04:22:00,64.0,56.0,29.69,SE,124,10.0,14.0,75,0.00,,,0.00,,2013-04-09 09:22:00,
2013-04-09 04:32:00,64.0,56.0,29.70,SSE,152,5.0,12.0,75,0.00,,,0.00,,2013-04-09 09:32:00,
2013-04-09 04:43:00,64.0,56.0,29.70,SSE,152,5.0,12.0,75,0.00,,,0.00,,2013-04-09 09:43:00,
2013-04-09 04:52:00,64.0,56.0,29.68,SE,146,6.0,13.0,75,0.00,,,0.00,,2013-04-09 09:52:00,
2013-04-09 05:03:00,64.0,56.0,29.67,ESE,120,5.0,11.0,75,0.00,,,0.00,,2013-04-09 10:03:00,
2013-04-09 05:12:00,64.0,56.0,29.67,ESE,120,5.0,11.0,75,0.00,,,0.00,,2013-04-09 10:12:00,
2013-04-09 05:23:00,64.0,56.0,29.68,ESE,119,7.0,10.0,76,0.00,,,0.00,,2013-04-09 10:23:00,
2013-04-09 05:32:00,63.0,56.0,29.69,SE,137,7.0,10.0,77,0.00,,,0.00,,2013-04-09 10:32:00,
2013-04-09 05:42:00,63.0,56.0,29.69,SE,137,7.0,10.0,77,0.00,,,0.00,,2013-04-09 10:42:00,
2013-04-09 05:52:00,63.0,56.0,29.69,SE,141,7.0,10.0,77,0.00,,,0.00,,2013-04-09 10:52:00,
2013-04-09 06:02:00,63.0,56.0,29.68,SSE,152,8.0,11.0,77,0.00,,,0.00,,2013-04-09 11:02:00,
2013-04-09 06:12:00,63.0,56.0,29.70,SE,135,6.0,11.0,77,0.00,,,0.00,,2013-04-09 11:12:00,
2013-04-09 06:22:00,63.0,56.0,29.70,SE,135,6.0,11.0,77,0.00,,,0.00,,2013-04-09 11:22:00,
2013-04-09 06:32:00,63.0,56.0,29.70,SE,136,6.0,8.0,78,0.00,,,0.00,,2013-04-09 11:32:00,
2013-04-09 06:42:00,63.0,56.0,29.70,SE,140,4.0,10.0,77,0.00,,,0.00,,2013-04-09 11:42:00,
2013-04-09 06:52:00,63.0,56.0,29.70,SE,140,4.0,10.0,77,0.00,,,0.00,,2013-04-09 11:52:00,
2013-04-09 07:02:00,63.0,56.0,29.70,SE,139,7.0,12.0,78,0.00,,,0.00,,2013-04-09 12:02:00,
2013-04-09 07:12:00,63.0,56.0,29.70,SE,139,7.0,12.0,78,0.00,,,0.00,,2013-04-09 12:12:00,
2013-04-09 07:22:00,63.0,56.0,29.70,SSE,148,5.0,12.0,78,0.00,,,0.00,,2013-04-09 12:22:00,
2013-04-09 07:32:00,63.0,56.0,29.71,SSE,152,6.0,11.0,78,0.00,,,0.00,,2013-04-09 12:32:00,
2013-04-09 07:42:00,63.0,56.0,29.71,SSE,152,6.0,11.0,78,0.00,,,0.00,,2013-04-09 12:42:00,
2013-04-09 07:52:00,63.0,56.0,29.73,SSE,154,5.0,9.0,78,0.00,,,0.00,,2013-04-09 12:52:00,
2013-04-09 08:02:00,64.0,57.0,29.72,SE,145,6.0,13.0,77,0.00,,,0.00,,2013-04-09 13:02:00,
2013-04-09 08:12:00,64.0,57.0,29.72,SE,145,6.0,13.0,77,0.00,,,0.00,,2013-04-09 13:12:00,
2013-04-09 08:22:00,65.0,57.0,29.73,SSE,149,10.0,11.0,75,0.00,,,0.00,,2013-04-09 13:22:00,
2013-04-09 08:32:00,65.0,56.0,29.72,SSE,154,10.0,13.0,74,0.00,,,0.00,,2013-04-09 13:32:00,
2013-04-09 08:42:00,65.0,56.0,29.72,SSE,154,10.0,13.0,74,0.00,,,0.00,,2013-04-09 13:42:00,
2013-04-09 08:52:00,66.0,57.0,29.72,SSE,162,7.0,13.0,73,0.00,,,0.00,,2013-04-09 13:52:00,
2013-04-09 09:03:00,66.0,57.0,29.73,South,177,6.0,12.0,73,0.00,,,0.00,,2013-04-09 14:03:00,
2013-04-09 09:12:00,66.0,57.0,29.73,South,177,6.0,12.0,73,0.00,,,0.00,,2013-04-09 14:12:00,
2013-04-09 09:22:00,66.0,57.0,29.75,South,178,8.0,12.0,73,0.00,,,0.00,,2013-04-09 14:22:00,
2013-04-09 09:32:00,66.0,57.0,29.77,SSE,148,3.0,4.0,73,0.00,,,0.00,,2013-04-09 14:32:00,
2013-04-09 09:42:00,66.0,57.0,29.77,SSE,148,3.0,4.0,73,0.00,,,0.00,,2013-04-09 14:42:00,
2013-04-09 09:52:00,65.0,56.0,29.78,SSE,157,1.0,4.0,74,0.00,,,0.00,,2013-04-09 14:52:00,
2013-04-09 10:02:00,65.0,57.0,29.78,SSE,157,2.0,4.0,75,0.00,,,0.00,,2013-04-09 15:02:00,
2013-04-09 10:12:00,65.0,57.0,29.78,SSE,157,2.0,4.0,75,0.00,,,0.00,,2013-04-09 15:12:00,
2013-04-09 10:22:00,65.0,58.0,29.80,South,172,1.0,5.0,77,0.00,,,0.00,,2013-04-09 15:22:00,
2013-04-09 10:33:00,65.0,58.0,29.79,South,173,3.0,4.0,78,0.00,,,0.00,,2013-04-09 15:33:00,
2013-04-09 10:43:00,65.0,58.0,29.79,South,173,3.0,4.0,78,0.00,,,0.00,,2013-04-09 15:43:00,
2013-04-09 10:53:00,65.0,58.0,29.80,SSE,159,4.0,7.0,79,0.00,,,0.00,,2013-04-09 15:53:00,
2013-04-09 11:03:00,66.0,59.0,29.78,South,176,7.0,9.0,78,0.00,,,0.00,,2013-04-09 16:03:00,
2013-04-09 11:13:00,66.0,59.0,29.78,South,176,7.0,9.0,78,0.00,,,0.00,,2013-04-09 16:13:00,
2013-04-09 11:23:00,68.0,59.0,29.77,SSE,161,8.0,14.0,74,0.00,,,0.00,,2013-04-09 16:23:00,
2013-04-09 11:33:00,69.0,60.0,29.79,South,176,12.0,15.0,73,0.00,,,0.00,,2013-04-09 16:33:00,
2013-04-09 11:42:00,69.0,60.0,29.79,South,176,12.0,15.0,73,0.00,,,0.00,,2013-04-09 16:42:00,
2013-04-09 11:52:00,71.0,61.0,29.78,SSE,162,10.0,17.0,70,0.00,,,0.00,,2013-04-09 16:52:00,
2013-04-09 12:02:00,71.0,60.0,29.78,South,181,10.0,16.0,68,0.00,,,0.00,,2013-04-09 17:02:00,
2013-04-09 12:12:00,72.0,60.0,29.77,South,173,5.0,18.0,67,0.00,,,0.00,,2013-04-09 17:12:00,
2013-04-09 12:23:00,72.0,60.0,29.77,South,173,5.0,18.0,67,0.00,,,0.00,,2013-04-09 17:23:00,
2013-04-09 12:32:00,73.0,60.0,29.77,South,187,10.0,20.0,64,0.00,,,0.00,,2013-04-09 17:32:00,
2013-04-09 12:42:00,73.0,60.0,29.77,South,187,10.0,20.0,64,0.00,,,0.00,,2013-04-09 17:42:00,
2013-04-09 12:54:00,73.0,60.0,29.77,South,176,9.0,21.0,64,0.00,,,0.00,,2013-04-09 17:54:00,
2013-04-09 13:02:00,73.0,60.0,29.77,South,189,10.0,19.0,64,0.00,,,0.00,,2013-04-09 18:02:00,
2013-04-09 13:12:00,73.0,60.0,29.77,South,189,10.0,19.0,64,0.00,,,0.00,,2013-04-09 18:12:00,
2013-04-09 13:22:00,73.0,60.0,29.78,South,178,13.0,16.0,64,0.00,,,0.00,,2013-04-09 18:22:00,
2013-04-09 13:32:00,74.0,61.0,29.76,SSW,202,5.0,19.0,63,0.00,,,0.00,,2013-04-09 18:32:00,
2013-04-09 13:43:00,74.0,61.0,29.76,SSW,202,5.0,19.0,63,0.00,,,0.00,,2013-04-09 18:43:00,
2013-04-09 13:52:00,75.0,62.0,29.76,South,170,10.0,17.0,63,0.00,,,0.00,,2013-04-09 18:52:00,
2013-04-09 14:02:00,75.0,62.0,29.76,South,170,10.0,17.0,63,0.00,,,0.00,,2013-04-09 19:02:00,
2013-04-09 14:12:00,75.0,62.0,29.76,South,170,10.0,17.0,63,0.00,,,0.00,,2013-04-09 19:12:00,
2013-04-09 14:22:00,75.0,62.0,29.76,South,170,10.0,17.0,63,0.00,,,0.00,,2013-04-09 19:22:00,
2013-04-09 14:32:00,74.0,61.0,29.77,South,183,6.0,14.0,63,0.00,,,0.00,,2013-04-09 19:32:00,
2013-04-09 14:42:00,74.0,61.0,29.77,South,183,6.0,14.0,63,0.00,,,0.00,,2013-04-09 19:42:00,
2013-04-09 14:52:00,75.0,61.0,29.75,South,171,7.0,14.0,61,0.00,,,0.00,,2013-04-09 19:52:00,
2013-04-09 15:02:00,75.0,60.0,29.76,South,171,7.0,15.0,60,0.00,,,0.00,,2013-04-09 20:02:00,
2013-04-09 15:12:00,75.0,60.0,29.76,South,189,14.0,16.0,59,0.00,,,0.00,,2013-04-09 20:12:00,
2013-04-09 15:22:00,75.0,60.0,29.76,South,189,14.0,16.0,59,0.00,,,0.00,,2013-04-09 20:22:00,
2013-04-09 15:33:00,75.0,60.0,29.74,South,177,8.0,18.0,60,0.00,,,0.00,,2013-04-09 20:33:00,
2013-04-09 15:42:00,75.0,60.0,29.74,South,177,8.0,18.0,60,0.00,,,0.00,,2013-04-09 20:42:00,
2013-04-09 15:52:00,74.0,59.0,29.77,South,189,5.0,21.0,60,0.00,,,0.00,,2013-04-09 20:52:00,
2013-04-09 16:02:00,73.0,59.0,29.72,SE,134,10.0,15.0,62,0.00,,,0.00,,2013-04-09 21:02:00,
2013-04-09 16:13:00,73.0,59.0,29.72,SE,134,10.0,15.0,62,0.00,,,0.00,,2013-04-09 21:13:00,
2013-04-09 16:22:00,73.0,59.0,29.72,SE,134,10.0,15.0,62,0.00,,,0.00,,2013-04-09 21:22:00,
2013-04-09 16:33:00,72.0,60.0,29.71,SSE,161,9.0,17.0,65,0.00,,,0.00,,2013-04-09 21:33:00,
2013-04-09 16:42:00,72.0,60.0,29.71,SSE,161,9.0,17.0,65,0.00,,,0.00,,2013-04-09 21:42:00,
2013-04-09 16:52:00,72.0,60.0,29.73,SSE,167,8.0,14.0,66,0.00,,,0.00,,2013-04-09 21:52:00,
2013-04-09 17:03:00,72.0,60.0,29.72,SSE,167,10.0,16.0,65,0.00,,,0.00,,2013-04-09 22:03:00,
2013-04-09 17:12:00,72.0,60.0,29.73,SSE,158,8.0,15.0,66,0.00,,,0.00,,2013-04-09 22:12:00,
2013-04-09 17:23:00,72.0,60.0,29.73,SSE,158,8.0,15.0,66,0.00,,,0.00,,2013-04-09 22:23:00,
2013-04-09 17:33:00,71.0,60.0,29.73,South,174,6.0,13.0,68,0.00,,,0.00,,2013-04-09 22:33:00,
2013-04-09 17:42:00,71.0,60.0,29.73,South,174,6.0,13.0,68,0.00,,,0.00,,2013-04-09 22:42:00,
2013-04-09 17:53:00,71.0,60.0,29.74,South,169,10.0,14.0,68,0.00,,,0.00,,2013-04-09 22:53:00,
2013-04-09 18:02:00,70.0,59.0,29.73,South,171,4.0,11.0,69,0.00,,,0.00,,2013-04-09 23:02:00,
2013-04-09 18:12:00,70.0,60.0,29.74,SE,139,6.0,8.0,70,0.00,,,0.00,,2013-04-09 23:12:00,
2013-04-09 18:22:00,70.0,60.0,29.74,SE,139,6.0,8.0,70,0.00,,,0.00,,2013-04-09 23:22:00,
2013-04-09 18:32:00,69.0,59.0,29.75,SSE,160,5.0,9.0,70,0.00,,,0.00,,2013-04-09 23:32:00,
2013-04-09 18:42:00,69.0,59.0,29.75,SSE,160,5.0,9.0,70,0.00,,,0.00,,2013-04-09 23:42:00,
2013-04-09 18:53:00,69.0,59.0,29.74,SSE,152,7.0,9.0,71,0.00,,,0.00,,2013-04-09 23:53:00,
2013-04-09 19:03:00,69.0,59.0,29.74,SSE,152,7.0,9.0,71,0.00,,,0.00,,2013-04-10 00:03:00,
2013-04-09 19:12:00,69.0,59.0,29.74,SSE,152,7.0,9.0,71,0.00,,,0.00,,2013-04-10 00:12:00,
2013-04-09 19:22:00,69.0,59.0,29.73,SSE,161,9.0,13.0,71,0.00,,,0.00,,2013-04-10 00:22:00,
2013-04-09 19:32:00,69.0,59.0,29.73,SSE,167,7.0,11.0,71,0.00,,,0.00,,2013-04-10 00:32:00,
2013-04-09 19:42:00,69.0,59.0,29.73,SSE,167,7.0,11.0,71,0.00,,,0.00,,2013-04-10 00:42:00,
2013-04-09 19:52:00,69.0,60.0,29.73,SSE,159,8.0,9.0,72,0.00,,,0.00,,2013-04-10 00:52:00,
2013-04-09 20:02:00,69.0,60.0,29.74,SE,141,5.0,8.0,72,0.00,,,0.00,,2013-04-10 01:02:00,
2013-04-09 20:12:00,69.0,60.0,29.74,SSE,151,6.0,7.0,72,0.00,,,0.00,,2013-04-10 01:12:00,
2013-04-09 20:23:00,69.0,60.0,29.74,SSE,151,6.0,7.0,72,0.00,,,0.00,,2013-04-10 01:23:00,
2013-04-09 20:32:00,68.0,59.0,29.74,SSE,147,7.0,9.0,73,0.00,,,0.00,,2013-04-10 01:32:00,
2013-04-09 20:42:00,68.0,59.0,29.74,SSE,147,7.0,9.0,73,0.00,,,0.00,,2013-04-10 01:42:00,
2013-04-09 20:53:00,68.0,59.0,29.74,SE,139,5.0,11.0,73,0.00,,,0.00,,2013-04-10 01:53:00,
2013-04-09 21:02:00,68.0,59.0,29.73,SE,137,4.0,9.0,74,0.00,,,0.00,,2013-04-10 02:02:00,
2013-04-09 21:12:00,68.0,59.0,29.73,SE,133,5.0,9.0,74,0.00,,,0.00,,2013-04-10 02:12:00,
2013-04-09 21:22:00,68.0,59.0,29.73,SE,133,5.0,9.0,74,0.00,,,0.00,,2013-04-10 02:22:00,
2013-04-09 21:32:00,68.0,60.0,29.73,SSE,149,6.0,9.0,75,0.00,,,0.00,,2013-04-10 02:32:00,
2013-04-09 21:42:00,68.0,60.0,29.73,SSE,149,6.0,9.0,75,0.00,,,0.00,,2013-04-10 02:42:00,
2013-04-09 21:52:00,68.0,60.0,29.74,SE,137,3.0,10.0,75,0.00,,,0.00,,2013-04-10 02:52:00,
2013-04-09 22:02:00,68.0,60.0,29.73,SE,133,6.0,8.0,75,0.00,,,0.00,,2013-04-10 03:02:00,
2013-04-09 22:12:00,68.0,60.0,29.73,SE,133,6.0,8.0,75,0.00,,,0.00,,2013-04-10 03:12:00,
2013-04-09 22:22:00,68.0,60.0,29.72,SE,130,3.0,8.0,75,0.00,,,0.00,,2013-04-10 03:22:00,
2013-04-09 22:32:00,67.0,59.0,29.75,NNW,340,6.0,12.0,75,0.00,,,0.00,,2013-04-10 03:32:00,
2013-04-09 22:43:00,67.0,59.0,29.75,NNW,340,6.0,12.0,75,0.00,,,0.00,,2013-04-10 03:43:00,
2013-04-09 22:53:00,63.0,57.0,29.77,NNW,339,6.0,7.0,80,0.14,,,0.14,,2013-04-10 03:53:00,
2013-04-09 23:03:00,60.0,54.0,29.73,NNW,336,7.0,10.0,82,0.15,,,0.15,,2013-04-10 04:03:00,
2013-04-09 23:13:00,60.0,54.0,29.73,NNW,336,7.0,10.0,82,0.15,,,0.15,,2013-04-10 04:13:00,
2013-04-09 23:23:00,59.0,54.0,29.75,NW,317,9.0,13.0,84,0.15,,,0.15,,2013-04-10 04:23:00,
2013-04-09 23:33:00,56.0,52.0,29.75,NW,325,10.0,17.0,85,0.13,,,0.15,,2013-04-10 04:33:00,
2013-04-09 23:42:00,56.0,52.0,29.75,NW,325,10.0,17.0,85,0.13,,,0.15,,2013-04-10 04:42:00,
2013-04-09 23:52:00,55.0,51.0,29.77,NNW,327,6.0,16.0,85,0.04,,,0.18,,2013-04-10 04:52:00,